Location: St. Louis
(38.6270°N, 90.1994°W)
Time: 09:38:30
(UTC-06:00)

SR - Pass Details

Date: 04 December 2021
Orbit: 582 x 872 km, 66.7° (Epoch: 21 January)

Event Time Altitude Azimuth Distance (km) Brightness Sun altitude
Rises 07:11:50 0° 345° (NNW) 2,824 ? 0.7°
Reaches altitude 10° 07:14:33 10° 3° (N) 1,940 ? 1.2°
Maximum altitude 07:17:46 20° 51° (NE) 1,434 ? 1.7°
Drops below altitude 10° 07:21:05 10° 99° (E) 2,016 ? 2.3°
Sets 07:23:58 0° 116° (ESE) 2,973 ? 2.7°
